IW8RUI-5 Weather Reports


Display with metric or nautical units.
time (UTC)temp
F
wind
direction
speed
MPH
gust
MPH
rain 1hr
in
rain 24hr
in
rain mn
in
humidity
%
barometer
mb
20260503032425 39 175 0.0 0.0 0.00 0.00 0.00 52 1012.0
20260503031924 39 184 0.0 0.0 0.00 0.00 0.00 52 1012.0
20260503031424 39 160 0.0 0.0 0.00 0.00 0.00 52 1012.0
20260503030924 39 164 0.0 0.0 0.00 0.00 0.00 52 1012.0
20260503030425 40 168 0.0 0.0 0.00 0.00 0.00 52 1012.0
20260503025924 40 172 0.0 0.0 0.00 0.00 0.00 52 1012.0
20260503025424 40 162 0.0 0.0 0.00 0.00 0.00 52 1012.0
20260503024924 40 181 0.0 0.0 0.00 0.00 0.00 52 1012.0
20260503024425 40 161 0.0 0.0 0.00 0.00 0.00 52 1012.0
20260503023924 40 163 0.0 0.0 0.00 0.00 0.00 52 1012.0
20260503023424 40 184 0.0 0.0 0.00 0.00 0.00 52 1012.0
20260503022924 40 183 0.0 0.0 0.00 0.00 0.00 52 1012.0
20260503022424 41 169 0.0 0.0 0.00 0.00 0.00 52 1012.0
20260503021924 41 169 0.0 0.0 0.00 0.00 0.00 53 1012.0
20260503021424 41 178 0.0 0.0 0.00 0.00 0.00 53 1013.0
20260503020924 41 182 0.0 0.0 0.00 0.00 0.00 53 1013.0
20260503020428 41 180 0.0 0.0 0.00 0.00 0.00 53 1013.0
20260503015924 41 178 0.0 0.0 0.00 0.00 0.00 53 1013.0
20260503015424 41 175 0.0 0.0 0.00 0.00 0.00 53 1013.0
20260503014924 41 156 0.0 0.0 0.00 0.00 0.00 53 1013.0
20260503014424 41 170 0.0 0.0 0.00 0.00 0.00 53 1013.0
20260503013924 42 156 0.0 0.0 0.00 0.00 0.00 53 1013.0
20260503013424 42 182 0.0 0.0 0.00 0.00 0.00 53 1013.0
20260503012924 42 179 0.0 0.0 0.00 0.00 0.00 53 1013.0
20260503011924 42 156 0.0 0.0 0.00 0.00 0.00 53 1013.0
20260503011424 42 161 0.0 0.0 0.00 0.00 0.00 53 1013.0
20260503010924 42 160 0.0 0.0 0.00 0.00 0.00 53 1013.0
20260503010424 42 181 0.0 0.0 0.00 0.00 0.00 53 1013.0
20260503005924 42 162 0.0 0.0 0.00 0.00 0.00 53 1013.0
20260503005424 42 177 0.0 0.0 0.00 0.00 0.00 53 1013.0
20260503004924 42 173 0.0 0.0 0.00 0.00 0.00 53 1013.0
20260503004424 42 168 0.0 0.0 0.00 0.00 0.00 53 1013.0
20260503003924 42 178 0.0 0.0 0.00 0.00 0.00 52 1013.0
20260503003424 42 167 0.0 0.0 0.00 0.00 0.00 50 1013.0
20260503002924 42 157 0.0 0.0 0.00 0.00 0.00 49 1013.0
20260503002424 42 155 0.0 0.0 0.00 0.00 0.00 49 1013.0
20260503001924 42 178 0.0 0.0 0.00 0.00 0.00 49 1013.0
20260503001424 42 173 0.0 0.0 0.00 0.00 0.00 49 1013.0
20260503000924 42 155 0.0 0.0 0.00 0.00 0.00 49 1013.0
20260503000424 42 176 0.0 0.0 0.00 0.00 0.00 49 1013.0
20260502235925 42 179 0.0 0.0 0.00 0.00 0.00 48 1013.0
20260502235424 42 179 0.0 0.0 0.00 0.00 0.00 48 1013.0
20260502234924 42 166 0.0 0.0 0.00 0.00 0.00 48 1013.0
20260502234424 42 159 0.0 0.0 0.00 0.00 0.00 48 1013.0
20260502233924 42 167 0.0 0.0 0.00 0.00 0.00 48 1013.0
20260502233424 42 160 0.0 0.0 0.00 0.00 0.00 48 1013.0
20260502232924 42 155 0.0 0.0 0.00 0.00 0.00 48 1013.0
20260502232424 42 161 0.0 0.0 0.00 0.00 0.00 48 1013.0
20260502231924 42 165 0.0 0.0 0.00 0.00 0.00 48 1013.0
20260502231424 42 171 0.0 0.0 0.00 0.00 0.00 48 1014.0
20260502230924 42 178 0.0 0.0 0.00 0.00 0.00 47 1014.0
20260502230424 42 168 0.0 0.0 0.00 0.00 0.00 47 1014.0
20260502225924 42 178 0.0 0.0 0.00 0.00 0.00 46 1014.0
20260502225424 42 172 0.0 0.0 0.00 0.00 0.00 46 1014.0
20260502224924 42 175 0.0 0.0 0.00 0.00 0.00 46 1014.0
20260502224424 42 179 0.0 0.0 0.00 0.00 0.00 45 1014.0
20260502223924 42 161 0.0 0.0 0.00 0.00 0.00 45 1014.0
20260502223424 42 166 0.0 0.0 0.00 0.00 0.00 45 1014.0
20260502222924 42 154 0.0 0.0 0.00 0.00 0.00 44 1014.0
20260502222424 42 154 0.0 0.0 0.00 0.00 0.00 42 1014.0
20260502221924 42 179 0.0 0.0 0.00 0.00 0.00 41 1014.0
20260502220924 42 155 0.0 0.0 0.00 0.00 0.00 40 1014.0
20260502220424 42 155 0.0 0.0 0.00 0.00 0.00 39 1014.0
20260502215924 41 180 0.0 0.0 0.00 0.00 0.00 39 1014.0
20260502215424 41 155 0.0 0.0 0.00 0.00 0.00 37 1014.0
20260502214924 41 168 0.0 0.0 0.00 0.00 0.00 37 1014.0
20260502214424 41 181 0.0 0.0 0.00 0.00 0.00 35 1014.0
20260502213924 41 171 0.0 0.0 0.00 0.00 0.00 36 1014.0
20260502213424 41 171 0.0 0.0 0.00 0.00 0.00 37 1014.0
20260502212924 41 157 0.0 0.0 0.00 0.00 0.00 36 1014.0
20260502212424 41 180 0.0 0.0 0.00 0.00 0.00 36 1014.0
20260502211924 41 181 0.0 0.0 0.00 0.00 0.00 37 1014.0
20260502211424 41 163 0.0 0.0 0.00 0.00 0.00 36 1014.0
20260502210925 41 171 0.0 0.0 0.00 0.00 0.00 36 1014.0
20260502210425 41 171 0.0 0.0 0.00 0.00 0.00 29 1014.0
20260502205924 41 180 0.0 0.0 0.00 0.00 0.00 23 1014.0
20260502205424 41 161 0.0 0.0 0.00 0.00 0.00 28 1014.0
20260502204924 41 180 0.0 0.0 0.00 0.00 0.00 10 1014.0
20260502204424 41 181 0.0 0.0 0.00 0.00 0.00 10 1014.0
20260502203925 41 178 0.0 0.0 0.00 0.00 0.00 10 1014.0
20260502203424 41 181 0.0 0.0 0.00 0.00 0.00 10 1014.0
20260502202924 41 154 0.0 0.0 0.00 0.00 0.00 10 1014.0
20260502202424 40 162 0.0 0.0 0.00 0.00 0.00 10 1014.0
20260502201924 40 156 0.0 0.0 0.00 0.00 0.00 10 1014.0
20260502201425 40 180 0.0 0.0 0.00 0.00 0.00 10 1014.0
20260502200924 40 181 0.0 0.0 0.00 0.00 0.00 10 1014.0
20260502200424 40 174 0.0 0.0 0.00 0.00 0.00 10 1014.0
20260502195924 41 180 0.0 0.0 0.00 0.00 0.00 10 1014.0
20260502195424 41 157 0.0 0.0 0.00 0.00 0.00 10 1014.0
20260502194924 41 179 0.0 0.0 0.00 0.00 0.00 10 1014.0
20260502194424 41 179 0.0 0.0 0.00 0.00 0.00 10 1014.0
20260502193924 42 169 0.0 0.0 0.00 0.00 0.00 10 1014.0
20260502193424 42 161 0.0 0.0 0.00 0.00 0.00 10 1014.0
20260502192924 42 159 0.0 0.0 0.00 0.00 0.00 10 1014.0
20260502192429 42 167 0.0 0.0 0.00 0.00 0.00 10 1014.0
20260502191958 42 153 0.0 0.0 0.00 0.00 0.00 10 1014.0
20260502191924 42 153 0.0 0.0 0.00 0.00 0.00 10 1014.0
20260502191425 42 178 0.0 0.0 0.00 0.00 0.00 10 1014.0
20260502190924 42 177 0.0 0.0 0.00 0.00 0.00 10 1014.0
20260502190424 42 153 0.0 0.0 0.00 0.00 0.00 10 1014.0
20260502185924 42 159 0.0 0.0 0.00 0.00 0.00 10 1013.0
20260502185424 42 177 0.0 0.0 0.00 0.00 0.00 10 1013.0
20260502184924 42 173 0.0 0.0 0.00 0.00 0.00 10 1013.0
20260502184424 42 167 0.0 0.0 0.00 0.00 0.00 10 1013.0
20260502183924 42 175 0.0 0.0 0.00 0.00 0.00 10 1013.0
20260502183425 42 155 0.0 0.0 0.00 0.00 0.00 10 1013.0
20260502182924 42 152 0.0 0.0 0.00 0.00 0.00 10 1013.0
20260502182424 42 166 0.0 0.0 0.00 0.00 0.00 10 1013.0
20260502181924 42 167 0.0 0.0 0.00 0.00 0.00 10 1013.0
20260502181424 42 176 0.0 0.0 0.00 0.00 0.00 10 1013.0
20260502180924 43 164 0.0 0.0 0.00 0.00 0.00 10 1013.0
20260502180424 43 165 0.0 0.0 0.00 0.00 0.00 10 1013.0
20260502170424 46 154 0.0 0.0 0.00 0.00 0.00 10 1013.0
20260502163924 52 176 0.0 0.0 0.00 0.00 0.00 10 1012.0
20260502163424 52 152 0.0 0.0 0.00 0.00 0.00 11 1012.0
20260502162925 52 176 0.0 0.0 0.00 0.00 0.00 11 1012.0
20260502162424 53 170 0.0 0.0 0.00 0.00 0.00 10 1012.0
20260502161924 51 165 0.0 0.0 0.00 0.00 0.00 10 1012.0
20260502161424 51 157 0.0 0.0 0.00 0.00 0.00 11 1012.0
20260502160924 51 154 0.0 0.0 0.00 0.00 0.00 11 1012.0
20260502160424 52 172 0.0 0.0 0.00 0.00 0.00 10 1012.0
20260502151924 51 167 0.0 0.0 0.00 0.00 0.00 11 1012.0
20260502151424 51 165 0.0 0.0 0.00 0.00 0.00 11 1012.0
20260502150924 52 167 0.0 0.0 0.00 0.00 0.00 10 1012.0
20260502150424 51 173 0.0 0.0 0.00 0.00 0.00 10 1012.0
20260502130424 50 154 0.0 0.0 0.00 0.00 0.00 10 1012.0
20260502122924 51 156 0.0 0.0 0.00 0.00 0.00 11 1012.0
20260502122506 51 178 0.0 0.0 0.00 0.00 0.00 11 1012.0
20260502122424 51 178 0.0 0.0 0.00 0.00 0.00 11 1012.0
20260502121924 51 156 0.0 0.0 0.00 0.00 0.00 11 1012.0
20260502120924 51 156 0.0 0.0 0.00 0.00 0.00 11 1012.0
20260502120424 51 152 0.0 0.0 0.00 0.00 0.00 11 1012.0
20260502115924 51 177 0.0 0.0 0.00 0.00 0.00 11 1012.0
20260502114924 50 167 0.0 0.0 0.00 0.00 0.00 10 1012.0
20260502114424 50 160 0.0 0.0 0.00 0.00 0.00 10 1012.0
20260502113924 50 165 0.0 0.0 0.00 0.00 0.00 10 1012.0
20260502113424 49 152 0.0 0.0 0.00 0.00 0.00 10 1012.0
20260502112924 48 152 0.0 0.0 0.00 0.00 0.00 11 1012.0
20260502112424 48 176 0.0 0.0 0.00 0.00 0.00 10 1012.0
20260502111924 48 176 0.0 0.0 0.00 0.00 0.00 10 1012.0
20260502111425 48 158 0.0 0.0 0.00 0.00 0.00 10 1012.0
20260502110924 48 176 0.0 0.0 0.00 0.00 0.00 10 1012.0
20260502110424 48 151 0.0 0.0 0.00 0.00 0.00 10 1012.0
20260502105924 48 156 0.0 0.0 0.00 0.00 0.00 14 1012.0
20260502105425 49 175 0.0 0.0 0.00 0.00 0.00 11 1012.0
20260502104924 48 151 0.0 0.0 0.00 0.00 0.00 11 1012.0
20260502104424 49 152 0.0 0.0 0.00 0.00 0.00 11 1012.0
20260502103924 49 154 0.0 0.0 0.00 0.00 0.00 11 1012.0
20260502103424 48 157 0.0 0.0 0.00 0.00 0.00 14 1012.0
20260502102924 48 150 0.0 0.0 0.00 0.00 0.00 14 1012.0
20260502102424 48 175 0.0 0.0 0.00 0.00 0.00 14 1012.0
20260502101924 48 172 0.0 0.0 0.00 0.00 0.00 11 1012.0
20260502101424 48 168 0.0 0.0 0.00 0.00 0.00 10 1012.0
20260502100924 48 151 0.0 0.0 0.00 0.00 0.00 11 1012.0
20260502100424 48 152 0.0 0.0 0.00 0.00 0.00 11 1012.0
20260502091424 46 156 0.0 0.0 0.00 0.00 0.00 17 1012.0
20260502090924 46 176 0.0 0.0 0.00 0.00 0.00 17 1012.0
20260502090424 46 170 0.0 0.0 0.00 0.00 0.00 17 1012.0
20260502071424 41 171 0.0 0.0 0.00 0.00 0.00 10 1012.0
20260502070924 41 166 0.0 0.0 0.00 0.00 0.00 10 1012.0
20260502070424 41 174 0.0 0.0 0.00 0.00 0.00 10 1012.0
20260502065924 41 156 0.0 0.0 0.00 0.00 0.00 10 1012.0
20260502065424 40 164 0.0 0.0 0.00 0.00 0.00 10 1012.0
20260502064924 40 171 0.0 0.0 0.00 0.00 0.00 10 1012.0
20260502064424 40 162 0.0 0.0 0.00 0.00 0.00 10 1012.0
20260502063924 40 152 0.0 0.0 0.00 0.00 0.00 10 1012.0
20260502063424 39 160 0.0 0.0 0.00 0.00 0.00 10 1012.0
20260502062924 39 156 0.0 0.0 0.00 0.00 0.00 10 1012.0
20260502062424 39 179 0.0 0.0 0.00 0.00 0.00 10 1012.0
20260502061924 39 178 0.0 0.0 0.00 0.00 0.00 10 1012.0
20260502061424 39 177 0.0 0.0 0.00 0.00 0.00 10 1011.0
20260502060924 39 178 0.0 0.0 0.00 0.00 0.00 10 1011.0
20260502060428 39 157 0.0 0.0 0.00 0.00 0.00 10 1011.0
20260502055924 39 179 0.0 0.0 0.00 0.00 0.00 10 1011.0
20260502055424 39 159 0.0 0.0 0.00 0.00 0.00 10 1011.0
20260502054924 38 165 0.0 0.0 0.00 0.00 0.00 10 1011.0
20260502054424 38 178 0.0 0.0 0.00 0.00 0.00 10 1011.0
20260502053924 38 172 0.0 0.0 0.00 0.00 0.00 10 1011.0
20260502053424 38 181 0.0 0.0 0.00 0.00 0.00 10 1011.0
20260502052928 38 173 0.0 0.0 0.00 0.00 0.00 10 1011.0
20260502052428 37 156 0.0 0.0 0.00 0.00 0.00 10 1011.0
20260502051928 37 177 0.0 0.0 0.00 0.00 0.00 10 1011.0
20260502051424 37 157 0.0 0.0 0.00 0.00 0.00 10 1011.0
20260502050924 37 155 0.0 0.0 0.00 0.00 0.00 10 1011.0
20260502050424 37 170 0.0 0.0 0.00 0.00 0.00 10 1011.0
20260502045924 37 162 0.0 0.0 0.00 0.00 0.00 10 1011.0
20260502044924 36 174 0.0 0.0 0.00 0.00 0.00 10 1011.0
20260502044424 36 157 0.0 0.0 0.00 0.00 0.00 10 1011.0
20260502043924 36 156 0.0 0.0 0.00 0.00 0.00 10 1011.0
20260502043424 36 178 0.0 0.0 0.00 0.00 0.00 10 1011.0
20260502042924 36 156 0.0 0.0 0.00 0.00 0.00 10 1011.0
20260502042424 36 180 0.0 0.0 0.00 0.00 0.00 10 1011.0
20260502041924 36 178 0.0 0.0 0.00 0.00 0.00 10 1011.0
20260502041424 36 175 0.0 0.0 0.00 0.00 0.00 10 1011.0
20260502040924 36 167 0.0 0.0 0.00 0.00 0.00 11 1011.0
20260502035924 36 176 0.0 0.0 0.00 0.00 0.00 11 1011.0
20260502035424 36 176 0.0 0.0 0.00 0.00 0.00 11 1011.0
20260502034925 36 157 0.0 0.0 0.00 0.00 0.00 11 1011.0
20260502034424 36 164 0.0 0.0 0.00 0.00 0.00 11 1011.0
20260502033924 36 183 0.0 0.0 0.00 0.00 0.00 11 1011.0
20260502033424 36 157 0.0 0.0 0.00 0.00 0.00 11 1011.0
20260502032924 36 173 0.0 0.0 0.00 0.00 0.00 11 1011.0